TimeMDT,TemperatureF,Dew PointF,Humidity,Sea Level PressureIn,VisibilityMPH,Wind Direction,Wind SpeedMPH,Gust SpeedMPH,PrecipitationIn,Events,Conditions,WindDirDegrees,DateUTC
12:53 AM,53.1,37.0,55,30.09,10.0,SSW,3.5,-,N/A,,Scattered Clouds,210,2012-05-31 06:53:00
1:53 AM,53.1,37.0,55,30.10,10.0,SSW,6.9,-,N/A,,Mostly Cloudy,210,2012-05-31 07:53:00
2:53 AM,48.9,37.0,64,30.11,10.0,West,9.2,-,N/A,,Partly Cloudy,260,2012-05-31 08:53:00
3:53 AM,51.1,37.0,59,30.11,10.0,WSW,5.8,-,N/A,,Scattered Clouds,240,2012-05-31 09:53:00
4:53 AM,48.9,37.0,64,30.11,10.0,SSW,5.8,-,N/A,,Scattered Clouds,210,2012-05-31 10:53:00
5:53 AM,48.0,39.0,71,30.12,10.0,SSW,6.9,-,N/A,,Scattered Clouds,200,2012-05-31 11:53:00
6:53 AM,48.9,39.0,69,30.11,10.0,SW,11.5,-,N/A,,Partly Cloudy,230,2012-05-31 12:53:00
7:53 AM,52.0,39.9,63,30.12,10.0,SW,11.5,-,N/A,,Partly Cloudy,220,2012-05-31 13:53:00
8:53 AM,55.9,39.0,53,30.11,10.0,SW,10.4,-,N/A,,Partly Cloudy,220,2012-05-31 14:53:00
9:53 AM,59.0,41.0,51,30.09,10.0,SW,6.9,-,N/A,,Partly Cloudy,220,2012-05-31 15:53:00
10:53 AM,62.1,39.0,43,30.07,10.0,SSW,6.9,-,N/A,,Scattered Clouds,200,2012-05-31 16:53:00
11:53 AM,64.4,39.2,40,30.08,10.0,SSW,8.1,-,N/A,,Scattered Clouds,210,2012-05-31 17:53:00
12:53 PM,66.0,41.0,40,30.02,10.0,Variable,4.6,-,N/A,,Scattered Clouds,0,2012-05-31 18:53:00
1:53 PM,68.0,39.2,35,30.03,10.0,WSW,9.2,16.1,N/A,,Scattered Clouds,240,2012-05-31 19:53:00
2:53 PM,70.0,41.0,35,29.96,10.0,SW,11.5,-,N/A,,Scattered Clouds,220,2012-05-31 20:53:00
3:53 PM,70.0,41.0,35,29.94,10.0,SSW,8.1,-,N/A,,Mostly Cloudy,210,2012-05-31 21:53:00
4:53 PM,72.0,39.0,30,29.91,10.0,WNW,11.5,-,N/A,,Overcast,300,2012-05-31 22:53:00
5:53 PM,68.0,41.0,37,29.92,10.0,NNW,3.5,-,0.00,Rain,Light Rain,340,2012-05-31 23:53:00
6:53 PM,64.9,43.0,45,29.95,10.0,Calm,Calm,-,0.00,Rain,Light Rain,0,2012-06-01 00:53:00
7:53 PM,60.1,51.1,72,29.96,10.0,NW,5.8,-,0.01,Rain,Light Rain,320,2012-06-01 01:53:00
8:53 PM,60.1,50.0,69,29.95,10.0,Calm,Calm,-,0.00,,Overcast,0,2012-06-01 02:53:00
9:53 PM,59.0,48.9,69,29.94,10.0,Calm,Calm,-,0.00,Rain,Light Rain,0,2012-06-01 03:53:00
10:53 PM,57.9,51.1,78,29.95,10.0,SW,3.5,-,0.00,Rain,Light Rain,230,2012-06-01 04:53:00
11:53 PM,57.9,51.1,78,29.93,10.0,SSW,5.8,-,0.00,Rain,Light Rain,210,2012-06-01 05:53:00